Location: Newark
(30.2500°N, 97.7500°W)
Time: 03:41:58
(UTC+00:00)

Envisat - Visible Passes

Search period start: 07 December 2019 00:00
Search period end: 17 December 2019 00:00
Orbit: 764 x 766 km, 98.1° (Epoch: 06 December)

Date Brightness Start Highest point End Pass type
(mag) Time Alt. Az. Time Alt. Az. Time Alt. Az.
07 Dec 4.0 01:02:51 10° S 01:07:44 48° W 01:12:38 10° NNW visible
08 Dec 2.9 00:25:58 10° SSE 00:30:59 68° ENE 00:36:02 10° N visible
08 Dec 4.8 12:41:01 10° NNE 12:45:42 37° E 12:50:22 10° SSE visible
08 Dec 3.9 23:50:11 10° SE 23:54:25 28° ENE 23:58:40 10° NNE visible
09 Dec 5.2 01:29:10 10° SSW 01:33:18 25° W 01:37:28 10° NW visible
09 Dec 6.1 12:05:53 10° ENE 12:08:45 15° E 12:11:35 10° SE visible
10 Dec 3.4 00:51:26 10° S 00:56:27 64° W 01:01:29 10° NNW visible
11 Dec 3.1 00:14:51 10° SSE 00:19:45 51° ENE 00:24:40 10° N visible
11 Dec 6.1 01:56:39 10° WSW 01:58:58 13° W 02:01:17 10° WNW visible
11 Dec 5.3 12:30:01 10° NE 12:34:23 28° E 12:38:43 10° SSE visible
12 Dec 4.7 01:17:27 10° SSW 01:21:59 33° W 01:26:32 10° NW visible
12 Dec 6.4 11:55:59 10° ENE 11:57:22 11° E 11:58:46 10° ESE visible
13 Dec 3.0 00:40:06 10° S 00:45:10 83° WSW 00:50:16 10° NNW visible
14 Dec 3.4 00:03:50 10° SE 00:08:31 39° ENE 00:13:13 10° N visible
14 Dec 5.7 01:44:18 10° SW 01:47:36 17° W 01:50:56 10° NW visible
14 Dec 5.7 12:19:10 10° NE 12:23:03 22° E 12:26:55 10° SE visible
15 Dec 4.2 01:05:53 10° S 01:10:40 43° W 01:15:30 10° NNW visible
16 Dec 2.9 00:28:52 10° SSE 00:33:54 75° ENE 00:38:59 10° N visible
16 Dec 4.5 12:43:51 10° NNE 12:48:39 41° E 12:53:24 10° S visible
